Time,TemperatureF,DewpointF,PressureIn,WindDirection,WindDirectionDegrees,WindSpeedMPH,WindSpeedGustMPH,Humidity,HourlyPrecipIn,Conditions,Clouds,dailyrainin,SoftwareType,DateUTC
2013-07-17 00:00:00,73.5,70.4,30.04,N/A,-737280,0.0,-999.0,90,0.00,,,0.18,Wunderground v.1.15,2013-07-17 04:00:00,
2013-07-17 00:05:00,73.5,70.4,30.04,N/A,-737280,0.0,-999.0,90,0.00,,,0.18,Wunderground v.1.15,2013-07-17 04:05:00,
2013-07-17 00:10:00,73.5,70.4,30.04,N/A,-737280,0.0,-999.0,90,0.00,,,0.18,Wunderground v.1.15,2013-07-17 04:10:00,
2013-07-17 00:15:00,73.5,70.4,30.04,ENE,68,0.0,-999.0,90,0.00,,,0.18,Wunderground v.1.15,2013-07-17 04:15:00,
2013-07-17 00:20:00,73.5,70.4,30.04,N/A,-737280,0.0,-999.0,90,0.00,,,0.18,Wunderground v.1.15,2013-07-17 04:20:00,
2013-07-17 00:25:00,73.5,70.4,30.04,N/A,-737280,0.0,-999.0,90,0.00,,,0.18,Wunderground v.1.15,2013-07-17 04:25:00,
2013-07-17 00:30:00,73.5,70.4,30.04,N/A,-737280,0.0,-999.0,90,0.00,,,0.18,Wunderground v.1.15,2013-07-17 04:30:00,
2013-07-17 00:35:00,73.5,70.4,30.04,N/A,-737280,0.0,-999.0,90,0.00,,,0.18,Wunderground v.1.15,2013-07-17 04:35:00,
2013-07-17 00:40:00,73.5,70.4,30.04,N/A,-737280,0.0,-999.0,90,0.00,,,0.18,Wunderground v.1.15,2013-07-17 04:40:00,
2013-07-17 00:45:00,73.5,70.4,30.04,East,90,0.0,-999.0,90,0.00,,,0.18,Wunderground v.1.15,2013-07-17 04:45:00,
2013-07-17 00:50:00,73.5,70.4,30.04,N/A,-737280,0.0,-999.0,90,0.00,,,0.18,Wunderground v.1.15,2013-07-17 04:50:00,
2013-07-17 00:55:00,73.5,70.4,30.04,N/A,-737280,0.0,-999.0,90,0.00,,,0.18,Wunderground v.1.15,2013-07-17 04:55:00,
2013-07-17 01:00:00,73.5,70.4,30.04,ESE,113,0.0,-999.0,90,0.00,,,0.18,Wunderground v.1.15,2013-07-17 05:00:00,
2013-07-17 01:05:00,73.5,70.4,30.04,N/A,-737280,0.0,-999.0,90,0.00,,,0.18,Wunderground v.1.15,2013-07-17 05:05:00,
2013-07-17 01:10:00,73.7,70.6,30.04,ESE,113,0.0,-999.0,90,0.00,,,0.18,Wunderground v.1.15,2013-07-17 05:10:00,
2013-07-17 01:15:00,73.5,70.4,30.03,N/A,-737280,0.0,-999.0,90,0.00,,,0.18,Wunderground v.1.15,2013-07-17 05:15:00,
2013-07-17 01:20:00,73.5,70.4,30.03,N/A,-737280,0.0,-999.0,90,0.00,,,0.18,Wunderground v.1.15,2013-07-17 05:20:00,
2013-07-17 01:25:00,73.7,70.6,30.03,ENE,68,0.0,-999.0,90,0.00,,,0.18,Wunderground v.1.15,2013-07-17 05:25:00,
2013-07-17 01:30:00,73.7,70.6,30.03,N/A,-737280,0.0,-999.0,90,0.00,,,0.18,Wunderground v.1.15,2013-07-17 05:30:00,
2013-07-17 01:35:00,73.7,70.6,30.03,N/A,-737280,0.0,-999.0,90,0.00,,,0.18,Wunderground v.1.15,2013-07-17 05:35:00,
2013-07-17 01:40:00,73.7,70.6,30.03,N/A,-737280,0.0,-999.0,90,0.00,,,0.18,Wunderground v.1.15,2013-07-17 05:40:00,
2013-07-17 01:45:00,73.7,70.9,30.02,N/A,-737280,0.0,-999.0,91,0.00,,,0.18,Wunderground v.1.15,2013-07-17 05:45:00,
2013-07-17 01:50:00,73.7,70.9,30.02,N/A,-737280,0.0,-999.0,91,0.00,,,0.18,Wunderground v.1.15,2013-07-17 05:50:00,
2013-07-17 01:55:00,73.7,70.9,30.02,N/A,-737280,0.0,-999.0,91,0.00,,,0.18,Wunderground v.1.15,2013-07-17 05:55:00,
2013-07-17 02:00:00,73.7,70.9,30.02,ENE,68,0.0,-999.0,91,0.00,,,0.18,Wunderground v.1.15,2013-07-17 06:00:00,
2013-07-17 02:05:00,73.7,70.9,30.02,N/A,-737280,0.0,-999.0,91,0.00,,,0.18,Wunderground v.1.15,2013-07-17 06:05:00,
2013-07-17 02:10:00,73.7,70.9,30.02,East,90,0.0,-999.0,91,0.00,,,0.18,Wunderground v.1.15,2013-07-17 06:10:00,
2013-07-17 02:15:00,73.7,70.9,30.02,NE,45,0.0,-999.0,91,0.00,,,0.18,Wunderground v.1.15,2013-07-17 06:15:00,
2013-07-17 02:20:00,73.7,70.9,30.02,N/A,-737280,0.0,-999.0,91,0.00,,,0.18,Wunderground v.1.15,2013-07-17 06:20:00,
2013-07-17 02:25:00,73.7,70.9,30.02,N/A,-737280,0.0,-999.0,91,0.00,,,0.18,Wunderground v.1.15,2013-07-17 06:25:00,
2013-07-17 02:30:00,73.7,70.9,30.02,N/A,-737280,0.0,-999.0,91,0.00,,,0.18,Wunderground v.1.15,2013-07-17 06:30:00,
2013-07-17 02:35:00,73.7,70.9,30.02,N/A,-737280,0.0,-999.0,91,0.00,,,0.18,Wunderground v.1.15,2013-07-17 06:35:00,
2013-07-17 02:40:00,73.7,70.9,30.02,N/A,-737280,0.0,-999.0,91,0.00,,,0.18,Wunderground v.1.15,2013-07-17 06:40:00,
2013-07-17 02:45:00,73.7,70.9,30.02,N/A,-737280,0.0,-999.0,91,0.00,,,0.18,Wunderground v.1.15,2013-07-17 06:45:00,
2013-07-17 02:50:00,73.7,70.9,30.02,N/A,-737280,0.0,-999.0,91,0.00,,,0.18,Wunderground v.1.15,2013-07-17 06:50:00,
2013-07-17 02:55:00,73.7,70.9,30.02,N/A,-737280,0.0,-999.0,91,0.00,,,0.18,Wunderground v.1.15,2013-07-17 06:55:00,
2013-07-17 03:00:00,73.7,70.9,30.02,NE,45,0.0,-999.0,91,0.00,,,0.18,Wunderground v.1.15,2013-07-17 07:00:00,
2013-07-17 03:05:00,73.7,70.9,30.02,N/A,-737280,0.0,-999.0,91,0.00,,,0.18,Wunderground v.1.15,2013-07-17 07:05:00,
2013-07-17 03:10:00,73.7,70.9,30.02,N/A,-737280,0.0,-999.0,91,0.00,,,0.18,Wunderground v.1.15,2013-07-17 07:10:00,
2013-07-17 03:15:00,73.7,70.9,30.01,N/A,-737280,0.0,-999.0,91,0.00,,,0.18,Wunderground v.1.15,2013-07-17 07:15:00,
2013-07-17 03:20:00,73.7,70.9,30.01,N/A,-737280,0.0,-999.0,91,0.00,,,0.18,Wunderground v.1.15,2013-07-17 07:20:00,
2013-07-17 03:25:00,73.7,70.9,30.01,N/A,-737280,0.0,-999.0,91,0.00,,,0.18,Wunderground v.1.15,2013-07-17 07:25:00,
2013-07-17 03:30:00,73.7,70.9,30.01,N/A,-737280,0.0,-999.0,91,0.00,,,0.18,Wunderground v.1.15,2013-07-17 07:30:00,
2013-07-17 03:35:00,73.5,70.7,30.01,N/A,-737280,0.0,-999.0,91,0.00,,,0.18,Wunderground v.1.15,2013-07-17 07:35:00,
2013-07-17 03:40:00,73.5,70.7,30.01,N/A,-737280,0.0,-999.0,91,0.00,,,0.18,Wunderground v.1.15,2013-07-17 07:40:00,
2013-07-17 03:45:00,73.7,70.9,30.01,NW,315,0.0,-999.0,91,0.00,,,0.18,Wunderground v.1.15,2013-07-17 07:45:00,
2013-07-17 03:50:00,73.7,70.9,30.01,N/A,-737280,0.0,-999.0,91,0.00,,,0.18,Wunderground v.1.15,2013-07-17 07:50:00,
2013-07-17 03:55:00,73.5,70.7,30.01,N/A,-737280,0.0,-999.0,91,0.00,,,0.18,Wunderground v.1.15,2013-07-17 07:55:00,
2013-07-17 04:00:00,73.5,70.7,30.01,East,90,0.0,-999.0,91,0.00,,,0.18,Wunderground v.1.15,2013-07-17 08:00:00,
2013-07-17 04:05:00,73.5,70.7,30.01,N/A,-737280,0.0,-999.0,91,0.00,,,0.18,Wunderground v.1.15,2013-07-17 08:05:00,
2013-07-17 04:10:00,73.5,70.7,30.01,N/A,-737280,0.0,-999.0,91,0.00,,,0.18,Wunderground v.1.15,2013-07-17 08:10:00,
2013-07-17 04:15:00,73.5,70.7,30.00,N/A,-737280,0.0,-999.0,91,0.00,,,0.18,Wunderground v.1.15,2013-07-17 08:15:00,
2013-07-17 04:20:00,73.5,70.7,30.00,N/A,-737280,0.0,-999.0,91,0.00,,,0.18,Wunderground v.1.15,2013-07-17 08:20:00,
2013-07-17 04:25:00,73.5,70.7,30.00,N/A,-737280,0.0,-999.0,91,0.00,,,0.18,Wunderground v.1.15,2013-07-17 08:25:00,
2013-07-17 04:30:00,73.5,70.7,30.00,N/A,-737280,0.0,-999.0,91,0.00,,,0.18,Wunderground v.1.15,2013-07-17 08:30:00,
2013-07-17 04:35:00,73.5,70.7,30.00,N/A,-737280,0.0,-999.0,91,0.00,,,0.18,Wunderground v.1.15,2013-07-17 08:35:00,
2013-07-17 04:40:00,73.5,70.7,30.00,N/A,-737280,0.0,-999.0,91,0.00,,,0.18,Wunderground v.1.15,2013-07-17 08:40:00,
2013-07-17 04:45:00,73.5,70.7,29.99,East,90,0.0,-999.0,91,0.00,,,0.18,Wunderground v.1.15,2013-07-17 08:45:00,
2013-07-17 04:50:00,73.5,70.7,29.99,N/A,-737280,0.0,-999.0,91,0.00,,,0.18,Wunderground v.1.15,2013-07-17 08:50:00,
2013-07-17 04:55:00,73.5,70.7,29.99,N/A,-737280,0.0,-999.0,91,0.00,,,0.18,Wunderground v.1.15,2013-07-17 08:55:00,
2013-07-17 05:00:00,73.5,70.7,30.00,N/A,-737280,0.0,-999.0,91,0.00,,,0.18,Wunderground v.1.15,2013-07-17 09:00:00,
2013-07-17 05:05:00,73.5,70.7,30.00,N/A,-737280,0.0,-999.0,91,0.00,,,0.18,Wunderground v.1.15,2013-07-17 09:05:00,
2013-07-17 05:10:00,73.5,70.7,30.00,N/A,-737280,0.0,-999.0,91,0.00,,,0.18,Wunderground v.1.15,2013-07-17 09:10:00,
2013-07-17 05:15:00,73.5,70.7,30.00,N/A,-737280,0.0,-999.0,91,0.00,,,0.18,Wunderground v.1.15,2013-07-17 09:15:00,
2013-07-17 05:20:00,73.5,70.7,30.00,N/A,-737280,0.0,-999.0,91,0.00,,,0.18,Wunderground v.1.15,2013-07-17 09:20:00,
2013-07-17 05:25:00,73.5,71.0,30.00,N/A,-737280,0.0,-999.0,92,0.00,,,0.18,Wunderground v.1.15,2013-07-17 09:25:00,
2013-07-17 05:30:00,73.5,71.0,30.01,N/A,-737280,0.0,-999.0,92,0.00,,,0.18,Wunderground v.1.15,2013-07-17 09:30:00,
2013-07-17 05:35:00,73.5,71.0,30.01,N/A,-737280,0.0,-999.0,92,0.00,,,0.18,Wunderground v.1.15,2013-07-17 09:35:00,
2013-07-17 05:40:00,73.5,71.0,30.01,N/A,-737280,0.0,-999.0,92,0.00,,,0.18,Wunderground v.1.15,2013-07-17 09:40:00,
2013-07-17 05:45:00,73.5,71.0,30.01,N/A,-737280,0.0,-999.0,92,0.00,,,0.18,Wunderground v.1.15,2013-07-17 09:45:00,
2013-07-17 05:50:00,73.5,71.0,30.01,N/A,-737280,0.0,-999.0,92,0.00,,,0.18,Wunderground v.1.15,2013-07-17 09:50:00,
2013-07-17 05:55:00,73.5,71.0,30.01,NNW,338,0.0,-999.0,92,0.00,,,0.18,Wunderground v.1.15,2013-07-17 09:55:00,
2013-07-17 06:00:00,73.5,71.0,30.01,N/A,-737280,0.0,-999.0,92,0.00,,,0.18,Wunderground v.1.15,2013-07-17 10:00:00,
2013-07-17 06:05:00,73.5,71.0,30.01,North,0,0.0,-999.0,92,0.00,,,0.18,Wunderground v.1.15,2013-07-17 10:05:00,
2013-07-17 06:10:00,73.7,71.2,30.01,N/A,-737280,0.0,-999.0,92,0.00,,,0.18,Wunderground v.1.15,2013-07-17 10:10:00,
2013-07-17 06:15:00,73.7,71.2,30.01,N/A,-737280,0.0,-999.0,92,0.00,,,0.18,Wunderground v.1.15,2013-07-17 10:15:00,
2013-07-17 06:20:00,73.5,71.0,30.01,North,0,0.0,-999.0,92,0.00,,,0.18,Wunderground v.1.15,2013-07-17 10:20:00,
2013-07-17 06:25:00,73.5,71.0,30.01,N/A,-737280,0.0,-999.0,92,0.00,,,0.18,Wunderground v.1.15,2013-07-17 10:25:00,
2013-07-17 06:30:00,73.7,71.2,30.01,N/A,-737280,0.0,-999.0,92,0.00,,,0.18,Wunderground v.1.15,2013-07-17 10:30:00,
2013-07-17 06:35:00,73.7,71.2,30.01,N/A,-737280,0.0,-999.0,92,0.00,,,0.18,Wunderground v.1.15,2013-07-17 10:35:00,
2013-07-17 06:40:00,73.7,71.2,30.01,N/A,-737280,0.0,-999.0,92,0.00,,,0.18,Wunderground v.1.15,2013-07-17 10:40:00,
2013-07-17 06:45:00,73.7,71.2,30.01,North,0,0.0,-999.0,92,0.00,,,0.18,Wunderground v.1.15,2013-07-17 10:45:00,
2013-07-17 06:50:00,73.7,71.2,30.01,N/A,-737280,0.0,-999.0,92,0.00,,,0.18,Wunderground v.1.15,2013-07-17 10:50:00,
2013-07-17 06:55:00,73.7,71.2,30.01,N/A,-737280,0.0,-999.0,92,0.00,,,0.18,Wunderground v.1.15,2013-07-17 10:55:00,
2013-07-17 07:00:00,73.7,71.2,30.02,N/A,-737280,0.0,-999.0,92,0.00,,,0.18,Wunderground v.1.15,2013-07-17 11:00:00,
2013-07-17 07:05:00,73.9,71.4,30.02,North,0,0.0,-999.0,92,0.00,,,0.18,Wunderground v.1.15,2013-07-17 11:05:00,
2013-07-17 07:10:00,73.9,71.4,30.02,N/A,-737280,0.0,-999.0,92,0.00,,,0.18,Wunderground v.1.15,2013-07-17 11:10:00,
2013-07-17 07:15:00,73.9,71.4,30.02,N/A,-737280,0.0,-999.0,92,0.00,,,0.18,Wunderground v.1.15,2013-07-17 11:15:00,
2013-07-17 07:20:00,73.9,71.4,30.02,North,0,0.0,-999.0,92,0.00,,,0.18,Wunderground v.1.15,2013-07-17 11:20:00,
2013-07-17 07:25:00,74.0,71.5,30.02,East,90,0.0,-999.0,92,0.00,,,0.18,Wunderground v.1.15,2013-07-17 11:25:00,
2013-07-17 07:30:00,74.0,71.5,30.02,N/A,-737280,0.0,-999.0,92,0.00,,,0.18,Wunderground v.1.15,2013-07-17 11:30:00,
2013-07-17 07:35:00,74.2,71.7,30.02,North,0,0.0,-999.0,92,0.00,,,0.18,Wunderground v.1.15,2013-07-17 11:35:00,
2013-07-17 07:40:00,74.2,71.7,30.02,West,270,0.0,-999.0,92,0.00,,,0.18,Wunderground v.1.15,2013-07-17 11:40:00,
2013-07-17 07:45:00,74.4,71.9,30.03,NNW,338,0.0,-999.0,92,0.00,,,0.18,Wunderground v.1.15,2013-07-17 11:45:00,
2013-07-17 07:50:00,74.6,72.1,30.03,North,0,0.0,-999.0,92,0.00,,,0.18,Wunderground v.1.15,2013-07-17 11:50:00,
2013-07-17 07:55:00,74.7,72.2,30.03,North,0,0.0,-999.0,92,0.00,,,0.18,Wunderground v.1.15,2013-07-17 11:55:00,
2013-07-17 08:00:00,74.9,72.4,30.03,N/A,-737280,0.0,-999.0,92,0.00,,,0.18,Wunderground v.1.15,2013-07-17 12:00:00,
2013-07-17 08:05:00,75.3,72.8,30.03,N/A,-737280,0.0,-999.0,92,0.00,,,0.18,Wunderground v.1.15,2013-07-17 12:05:00,
2013-07-17 08:10:00,75.4,72.9,30.03,East,90,0.0,-999.0,92,0.00,,,0.18,Wunderground v.1.15,2013-07-17 12:10:00,
2013-07-17 08:15:00,75.8,73.3,30.04,N/A,-737280,0.0,-999.0,92,0.00,,,0.18,Wunderground v.1.15,2013-07-17 12:15:00,
2013-07-17 08:20:00,76.1,73.6,30.04,N/A,-737280,0.0,-999.0,92,0.00,,,0.18,Wunderground v.1.15,2013-07-17 12:20:00,
2013-07-17 08:25:00,76.3,73.8,30.04,North,0,0.0,-999.0,92,0.00,,,0.18,Wunderground v.1.15,2013-07-17 12:25:00,
2013-07-17 08:30:00,76.7,74.2,30.05,North,0,0.0,-999.0,92,0.00,,,0.18,Wunderground v.1.15,2013-07-17 12:30:00,
2013-07-17 08:35:00,76.8,74.3,30.05,East,90,2.0,-999.0,92,0.00,,,0.18,Wunderground v.1.15,2013-07-17 12:35:00,
2013-07-17 08:40:00,77.2,74.7,30.05,N/A,-737280,0.0,-999.0,92,0.00,,,0.18,Wunderground v.1.15,2013-07-17 12:40:00,
2013-07-17 08:45:00,77.4,74.9,30.05,East,90,1.0,-999.0,92,0.00,,,0.18,Wunderground v.1.15,2013-07-17 12:45:00,
2013-07-17 08:50:00,77.7,74.9,30.05,East,90,1.0,-999.0,91,0.00,,,0.18,Wunderground v.1.15,2013-07-17 12:50:00,
2013-07-17 08:55:00,77.7,74.9,30.05,East,90,2.0,-999.0,91,0.00,,,0.18,Wunderground v.1.15,2013-07-17 12:55:00,
2013-07-17 09:00:00,77.9,75.1,30.05,East,90,2.0,-999.0,91,0.00,,,0.18,Wunderground v.1.15,2013-07-17 13:00:00,
2013-07-17 09:05:00,78.3,75.5,30.05,East,90,0.0,-999.0,91,0.00,,,0.18,Wunderground v.1.15,2013-07-17 13:05:00,
2013-07-17 09:10:00,78.5,75.3,30.05,East,90,2.0,-999.0,90,0.00,,,0.18,Wunderground v.1.15,2013-07-17 13:10:00,
2013-07-17 09:15:00,78.3,75.1,30.05,East,90,2.0,-999.0,90,0.00,,,0.18,Wunderground v.1.15,2013-07-17 13:15:00,
2013-07-17 09:20:00,78.5,75.3,30.05,East,90,0.0,-999.0,90,0.00,,,0.18,Wunderground v.1.15,2013-07-17 13:20:00,
2013-07-17 09:25:00,78.5,75.3,30.05,East,90,1.0,-999.0,90,0.00,,,0.18,Wunderground v.1.15,2013-07-17 13:25:00,
2013-07-17 09:30:00,79.0,75.8,30.05,East,90,0.0,-999.0,90,0.00,,,0.18,Wunderground v.1.15,2013-07-17 13:30:00,
2013-07-17 09:35:00,79.2,75.7,30.05,East,90,1.0,-999.0,89,0.00,,,0.18,Wunderground v.1.15,2013-07-17 13:35:00,
2013-07-17 09:40:00,79.4,75.9,30.05,ENE,68,1.0,-999.0,89,0.00,,,0.18,Wunderground v.1.15,2013-07-17 13:40:00,
2013-07-17 09:45:00,79.8,75.9,30.04,ENE,68,2.0,-999.0,88,0.00,,,0.18,Wunderground v.1.15,2013-07-17 13:45:00,
2013-07-17 09:50:00,80.1,76.2,30.04,East,90,0.0,-999.0,88,0.00,,,0.18,Wunderground v.1.15,2013-07-17 13:50:00,
2013-07-17 09:55:00,80.5,76.6,30.04,East,90,1.0,-999.0,88,0.00,,,0.18,Wunderground v.1.15,2013-07-17 13:55:00,
2013-07-17 10:00:00,80.9,76.7,30.04,East,90,2.0,-999.0,87,0.00,,,0.18,Wunderground v.1.15,2013-07-17 14:00:00,
2013-07-17 10:05:00,80.9,76.3,30.04,East,90,4.0,-999.0,86,0.00,,,0.18,Wunderground v.1.15,2013-07-17 14:05:00,
2013-07-17 10:10:00,81.2,76.6,30.04,East,90,3.0,-999.0,86,0.00,,,0.18,Wunderground v.1.15,2013-07-17 14:10:00,
2013-07-17 10:15:00,81.6,76.6,30.03,East,90,0.0,-999.0,85,0.00,,,0.18,Wunderground v.1.15,2013-07-17 14:15:00,
2013-07-17 10:20:00,82.0,76.7,30.03,East,90,1.0,-999.0,84,0.00,,,0.18,Wunderground v.1.15,2013-07-17 14:20:00,
2013-07-17 10:25:00,82.4,77.1,30.03,East,90,1.0,-999.0,84,0.00,,,0.18,Wunderground v.1.15,2013-07-17 14:25:00,
2013-07-17 10:30:00,82.2,76.2,30.03,East,90,3.0,-999.0,82,0.00,,,0.18,Wunderground v.1.15,2013-07-17 14:30:00,
2013-07-17 10:35:00,82.0,76.0,30.03,East,90,3.0,-999.0,82,0.00,,,0.18,Wunderground v.1.15,2013-07-17 14:35:00,
2013-07-17 10:40:00,82.6,76.5,30.03,East,90,1.0,-999.0,82,0.00,,,0.18,Wunderground v.1.15,2013-07-17 14:40:00,
2013-07-17 10:45:00,82.6,76.2,30.03,East,90,2.0,-999.0,81,0.00,,,0.18,Wunderground v.1.15,2013-07-17 14:45:00,
2013-07-17 10:50:00,82.6,75.8,30.03,East,90,4.0,-999.0,80,0.00,,,0.18,Wunderground v.1.15,2013-07-17 14:50:00,
2013-07-17 10:55:00,83.2,76.0,30.03,East,90,3.0,-999.0,79,0.00,,,0.18,Wunderground v.1.15,2013-07-17 14:55:00,
2013-07-17 11:00:00,83.8,76.6,30.02,East,90,0.0,-999.0,79,0.00,,,0.18,Wunderground v.1.15,2013-07-17 15:00:00,
2013-07-17 11:05:00,84.3,76.7,30.02,East,90,2.0,-999.0,78,0.00,,,0.18,Wunderground v.1.15,2013-07-17 15:05:00,
2013-07-17 11:10:00,84.5,76.9,30.02,ESE,113,1.0,-999.0,78,0.00,,,0.18,Wunderground v.1.15,2013-07-17 15:10:00,
2013-07-17 11:15:00,84.9,76.9,30.02,NE,45,1.0,-999.0,77,0.00,,,0.18,Wunderground v.1.15,2013-07-17 15:15:00,
2013-07-17 11:20:00,85.1,76.7,30.02,East,90,2.0,-999.0,76,0.00,,,0.18,Wunderground v.1.15,2013-07-17 15:20:00,
2013-07-17 11:25:00,85.5,77.1,30.02,East,90,1.0,-999.0,76,0.00,,,0.18,Wunderground v.1.15,2013-07-17 15:25:00,
2013-07-17 11:30:00,85.7,76.9,30.02,East,90,3.0,-999.0,75,0.00,,,0.18,Wunderground v.1.15,2013-07-17 15:30:00,
2013-07-17 11:35:00,86.3,77.4,30.02,ENE,68,0.0,-999.0,75,0.00,,,0.18,Wunderground v.1.15,2013-07-17 15:35:00,
2013-07-17 11:40:00,86.7,77.0,30.02,East,90,3.0,-999.0,73,0.00,,,0.18,Wunderground v.1.15,2013-07-17 15:40:00,
2013-07-17 11:45:00,86.7,76.6,30.02,East,90,2.0,-999.0,72,0.00,,,0.18,Wunderground v.1.15,2013-07-17 15:45:00,
2013-07-17 11:50:00,87.0,76.9,30.02,ESE,113,1.0,-999.0,72,0.00,,,0.18,Wunderground v.1.15,2013-07-17 15:50:00,
2013-07-17 11:55:00,87.2,76.6,30.02,East,90,2.0,-999.0,71,0.00,,,0.18,Wunderground v.1.15,2013-07-17 15:55:00,
2013-07-17 12:00:00,87.0,76.5,30.02,East,90,3.0,-999.0,71,0.00,,,0.18,Wunderground v.1.15,2013-07-17 16:00:00,
2013-07-17 12:05:00,87.0,76.5,30.02,East,90,2.0,-999.0,71,0.00,,,0.18,Wunderground v.1.15,2013-07-17 16:05:00,
2013-07-17 12:10:00,86.7,75.7,30.02,East,90,1.0,-999.0,70,0.00,,,0.18,Wunderground v.1.15,2013-07-17 16:10:00,
2013-07-17 12:15:00,86.5,75.1,30.03,East,90,2.0,-999.0,69,0.00,,,0.18,Wunderground v.1.15,2013-07-17 16:15:00,
2013-07-17 12:20:00,87.0,75.6,30.03,East,90,3.0,-999.0,69,0.00,,,0.18,Wunderground v.1.15,2013-07-17 16:20:00,
2013-07-17 12:25:00,87.4,76.0,30.03,North,0,1.0,-999.0,69,0.00,,,0.18,Wunderground v.1.15,2013-07-17 16:25:00,
2013-07-17 12:30:00,88.0,76.1,30.02,North,0,1.0,-999.0,68,0.00,,,0.18,Wunderground v.1.15,2013-07-17 16:30:00,
2013-07-17 12:35:00,88.6,76.7,30.02,North,0,0.0,-999.0,68,0.00,,,0.18,Wunderground v.1.15,2013-07-17 16:35:00,
2013-07-17 12:40:00,89.0,76.2,30.02,East,90,1.0,-999.0,66,0.00,,,0.18,Wunderground v.1.15,2013-07-17 16:40:00,
2013-07-17 12:45:00,89.0,76.2,30.02,ENE,68,1.0,-999.0,66,0.00,,,0.18,Wunderground v.1.15,2013-07-17 16:45:00,
2013-07-17 12:50:00,89.5,76.2,30.02,ESE,113,1.0,-999.0,65,0.00,,,0.18,Wunderground v.1.15,2013-07-17 16:50:00,
2013-07-17 12:55:00,89.9,76.1,30.02,ENE,68,1.0,-999.0,64,0.00,,,0.18,Wunderground v.1.15,2013-07-17 16:55:00,
2013-07-17 13:00:00,90.3,76.5,30.02,East,90,1.0,-999.0,64,0.00,,,0.18,Wunderground v.1.15,2013-07-17 17:00:00,
2013-07-17 13:05:00,90.5,76.2,30.02,East,90,4.0,-999.0,63,0.00,,,0.18,Wunderground v.1.15,2013-07-17 17:05:00,
2013-07-17 13:10:00,90.7,75.9,30.02,East,90,3.0,-999.0,62,0.00,,,0.18,Wunderground v.1.15,2013-07-17 17:10:00,
2013-07-17 13:15:00,90.7,75.4,30.01,East,90,3.0,-999.0,61,0.00,,,0.18,Wunderground v.1.15,2013-07-17 17:15:00,
2013-07-17 13:20:00,91.0,75.2,30.01,East,90,4.0,-999.0,60,0.00,,,0.18,Wunderground v.1.15,2013-07-17 17:20:00,
2013-07-17 13:25:00,91.0,74.7,30.01,East,90,3.0,-999.0,59,0.00,,,0.18,Wunderground v.1.15,2013-07-17 17:25:00,
2013-07-17 13:30:00,91.2,74.9,30.01,East,90,2.0,-999.0,59,0.00,,,0.18,Wunderground v.1.15,2013-07-17 17:30:00,
2013-07-17 13:35:00,91.2,74.9,30.01,ENE,68,1.0,-999.0,59,0.00,,,0.18,Wunderground v.1.15,2013-07-17 17:35:00,
2013-07-17 13:40:00,91.2,74.4,30.01,East,90,0.0,-999.0,58,0.00,,,0.18,Wunderground v.1.15,2013-07-17 17:40:00,
2013-07-17 13:45:00,91.2,74.4,30.00,East,90,1.0,-999.0,58,0.00,,,0.18,Wunderground v.1.15,2013-07-17 17:45:00,
2013-07-17 13:50:00,91.4,74.0,30.00,East,90,1.0,-999.0,57,0.00,,,0.18,Wunderground v.1.15,2013-07-17 17:50:00,
2013-07-17 13:55:00,91.6,74.2,30.00,North,0,1.0,-999.0,57,0.00,,,0.18,Wunderground v.1.15,2013-07-17 17:55:00,
2013-07-17 14:00:00,91.8,74.4,29.99,ENE,68,0.0,-999.0,57,0.00,,,0.18,Wunderground v.1.15,2013-07-17 18:00:00,
2013-07-17 14:05:00,91.8,73.9,29.99,East,90,0.0,-999.0,56,0.00,,,0.18,Wunderground v.1.15,2013-07-17 18:05:00,
2013-07-17 14:10:00,91.8,73.9,29.99,North,0,1.0,-999.0,56,0.00,,,0.18,Wunderground v.1.15,2013-07-17 18:10:00,
2013-07-17 14:15:00,91.8,73.3,29.99,East,90,2.0,-999.0,55,0.00,,,0.18,Wunderground v.1.15,2013-07-17 18:15:00,
2013-07-17 14:20:00,92.1,73.6,29.99,East,90,0.0,-999.0,55,0.00,,,0.18,Wunderground v.1.15,2013-07-17 18:20:00,
2013-07-17 14:25:00,92.3,73.8,29.99,North,0,2.0,-999.0,55,0.00,,,0.18,Wunderground v.1.15,2013-07-17 18:25:00,
2013-07-17 14:30:00,92.3,73.8,29.98,North,0,1.0,-999.0,55,0.00,,,0.18,Wunderground v.1.15,2013-07-17 18:30:00,
2013-07-17 14:35:00,92.5,73.4,29.98,East,90,1.0,-999.0,54,0.00,,,0.18,Wunderground v.1.15,2013-07-17 18:35:00,
2013-07-17 14:40:00,92.5,72.3,29.98,East,90,1.0,-999.0,52,0.00,,,0.18,Wunderground v.1.15,2013-07-17 18:40:00,
2013-07-17 14:45:00,92.7,72.5,29.98,North,0,0.0,-999.0,52,0.00,,,0.18,Wunderground v.1.15,2013-07-17 18:45:00,
2013-07-17 14:50:00,92.7,72.5,29.98,East,90,1.0,-999.0,52,0.00,,,0.18,Wunderground v.1.15,2013-07-17 18:50:00,
2013-07-17 14:55:00,92.9,72.7,29.98,SSE,158,1.0,-999.0,52,0.00,,,0.18,Wunderground v.1.15,2013-07-17 18:55:00,
2013-07-17 15:00:00,93.2,72.4,29.96,East,90,0.0,-999.0,51,0.00,,,0.18,Wunderground v.1.15,2013-07-17 19:00:00,
2013-07-17 15:05:00,93.2,72.4,29.96,N/A,-737280,0.0,-999.0,51,0.00,,,0.18,Wunderground v.1.15,2013-07-17 19:05:00,
2013-07-17 15:10:00,92.7,71.9,29.96,East,90,1.0,-999.0,51,0.00,,,0.18,Wunderground v.1.15,2013-07-17 19:10:00,
2013-07-17 15:15:00,91.2,73.3,29.98,North,0,3.0,-999.0,56,0.08,,,0.18,Wunderground v.1.15,2013-07-17 19:15:00,
2013-07-17 15:20:00,88.6,71.9,29.98,North,0,1.0,-999.0,58,0.15,,,0.18,Wunderground v.1.15,2013-07-17 19:20:00,
2013-07-17 15:25:00,87.0,71.4,29.98,N/A,-737280,0.0,-999.0,60,0.15,,,0.18,Wunderground v.1.15,2013-07-17 19:25:00,
2013-07-17 15:30:00,85.7,72.1,29.96,N/A,-737280,0.0,-999.0,64,0.15,,,0.18,Wunderground v.1.15,2013-07-17 19:30:00,
2013-07-17 15:35:00,85.1,72.0,29.96,N/A,-737280,0.0,-999.0,65,0.15,,,0.18,Wunderground v.1.15,2013-07-17 19:35:00,
2013-07-17 15:40:00,84.9,73.6,29.96,N/A,-737280,0.0,-999.0,69,0.15,,,0.18,Wunderground v.1.15,2013-07-17 19:40:00,
2013-07-17 15:45:00,84.7,73.8,29.96,N/A,-737280,0.0,-999.0,70,0.15,,,0.18,Wunderground v.1.15,2013-07-17 19:45:00,
2013-07-17 15:50:00,84.7,74.7,29.96,NNW,338,0.0,-999.0,72,0.15,,,0.18,Wunderground v.1.15,2013-07-17 19:50:00,
2013-07-17 15:55:00,84.7,74.7,29.96,North,0,0.0,-999.0,72,0.15,,,0.18,Wunderground v.1.15,2013-07-17 19:55:00,
2013-07-17 16:00:00,84.5,74.9,29.97,ESE,113,0.0,-999.0,73,0.15,,,0.18,Wunderground v.1.15,2013-07-17 20:00:00,
2013-07-17 16:05:00,83.8,73.0,29.97,North,0,0.0,-999.0,70,0.15,,,0.18,Wunderground v.1.15,2013-07-17 20:05:00,
2013-07-17 16:10:00,83.0,72.2,29.97,East,90,2.0,-999.0,70,0.15,,,0.18,Wunderground v.1.15,2013-07-17 20:10:00,
2013-07-17 16:15:00,81.6,70.4,29.99,ESE,113,4.0,-999.0,69,0.07,,,0.18,Wunderground v.1.15,2013-07-17 20:15:00,
2013-07-17 16:20:00,80.3,68.8,29.99,East,90,2.0,-999.0,68,0.00,,,0.18,Wunderground v.1.15,2013-07-17 20:20:00,
2013-07-17 16:25:00,79.2,67.7,29.99,ENE,68,1.0,-999.0,68,0.00,,,0.18,Wunderground v.1.15,2013-07-17 20:25:00,
2013-07-17 16:30:00,78.1,66.7,29.98,East,90,2.0,-999.0,68,0.00,,,0.18,Wunderground v.1.15,2013-07-17 20:30:00,
2013-07-17 16:35:00,77.4,66.0,29.98,ENE,68,1.0,-999.0,68,0.01,,,0.18,Wunderground v.1.15,2013-07-17 20:35:00,
2013-07-17 16:40:00,76.8,66.3,29.98,ENE,68,0.0,-999.0,70,0.02,,,0.18,Wunderground v.1.15,2013-07-17 20:40:00,
2013-07-17 16:45:00,76.5,66.4,29.99,ENE,68,0.0,-999.0,71,0.02,,,0.18,Wunderground v.1.15,2013-07-17 20:45:00,
2013-07-17 16:50:00,76.3,66.6,29.99,ENE,68,0.0,-999.0,72,0.02,,,0.18,Wunderground v.1.15,2013-07-17 20:50:00,
2013-07-17 16:55:00,76.0,66.7,29.99,ENE,68,0.0,-999.0,73,0.03,,,0.18,Wunderground v.1.15,2013-07-17 20:55:00,
2013-07-17 17:00:00,75.6,66.7,29.99,ENE,68,0.0,-999.0,74,0.03,,,0.18,Wunderground v.1.15,2013-07-17 21:00:00,
2013-07-17 17:05:00,75.3,66.8,29.99,East,90,1.0,-999.0,75,0.03,,,0.18,Wunderground v.1.15,2013-07-17 21:05:00,
2013-07-17 17:10:00,74.9,66.8,29.99,ENE,68,0.0,-999.0,76,0.03,,,0.18,Wunderground v.1.15,2013-07-17 21:10:00,
2013-07-17 17:15:00,74.7,66.6,29.99,ENE,68,0.0,-999.0,76,0.03,,,0.18,Wunderground v.1.15,2013-07-17 21:15:00,
2013-07-17 17:20:00,74.7,67.0,29.99,ENE,68,0.0,-999.0,77,0.03,,,0.18,Wunderground v.1.15,2013-07-17 21:20:00,
2013-07-17 17:25:00,74.6,67.3,29.99,East,90,0.0,-999.0,78,0.03,,,0.18,Wunderground v.1.15,2013-07-17 21:25:00,
2013-07-17 17:30:00,74.7,67.4,29.99,N/A,-737280,0.0,-999.0,78,0.03,,,0.18,Wunderground v.1.15,2013-07-17 21:30:00,
2013-07-17 17:35:00,74.7,67.8,29.99,N/A,-737280,0.0,-999.0,79,0.02,,,0.18,Wunderground v.1.15,2013-07-17 21:35:00,
2013-07-17 17:40:00,74.7,67.8,29.99,East,90,0.0,-999.0,79,0.01,,,0.18,Wunderground v.1.15,2013-07-17 21:40:00,
2013-07-17 17:45:00,74.6,67.7,29.98,ENE,68,0.0,-999.0,79,0.01,,,0.18,Wunderground v.1.15,2013-07-17 21:45:00,
2013-07-17 17:50:00,74.6,68.0,29.98,East,90,0.0,-999.0,80,0.01,,,0.18,Wunderground v.1.15,2013-07-17 21:50:00,
2013-07-17 17:55:00,74.6,68.0,29.98,East,90,0.0,-999.0,80,0.00,,,0.18,Wunderground v.1.15,2013-07-17 21:55:00,
2013-07-17 18:00:00,74.6,68.0,29.98,ENE,68,0.0,-999.0,80,0.00,,,0.18,Wunderground v.1.15,2013-07-17 22:00:00,
2013-07-17 18:05:00,74.6,68.0,29.98,N/A,-737280,0.0,-999.0,80,0.00,,,0.18,Wunderground v.1.15,2013-07-17 22:05:00,
2013-07-17 18:10:00,74.4,67.8,29.98,ENE,68,0.0,-999.0,80,0.00,,,0.18,Wunderground v.1.15,2013-07-17 22:10:00,
2013-07-17 18:15:00,74.2,67.6,29.97,N/A,-737280,0.0,-999.0,80,0.00,,,0.18,Wunderground v.1.15,2013-07-17 22:15:00,
2013-07-17 18:20:00,74.4,68.2,29.97,East,90,0.0,-999.0,81,0.00,,,0.18,Wunderground v.1.15,2013-07-17 22:20:00,
2013-07-17 18:25:00,74.4,68.2,29.97,East,90,0.0,-999.0,81,0.00,,,0.18,Wunderground v.1.15,2013-07-17 22:25:00,
2013-07-17 18:30:00,74.4,68.5,29.96,ENE,68,0.0,-999.0,82,0.00,,,0.18,Wunderground v.1.15,2013-07-17 22:30:00,
2013-07-17 18:35:00,74.4,68.5,29.96,East,90,0.0,-999.0,82,0.00,,,0.18,Wunderground v.1.15,2013-07-17 22:35:00,
2013-07-17 18:40:00,74.4,68.5,29.96,ENE,68,0.0,-999.0,82,0.00,,,0.18,Wunderground v.1.15,2013-07-17 22:40:00,
2013-07-17 18:45:00,74.6,68.7,29.96,East,90,0.0,-999.0,82,0.00,,,0.18,Wunderground v.1.15,2013-07-17 22:45:00,
2013-07-17 18:50:00,74.6,68.7,29.96,N/A,-737280,0.0,-999.0,82,0.00,,,0.18,Wunderground v.1.15,2013-07-17 22:50:00,
2013-07-17 18:55:00,74.6,68.7,29.96,N/A,-737280,0.0,-999.0,82,0.00,,,0.18,Wunderground v.1.15,2013-07-17 22:55:00,
2013-07-17 19:00:00,74.6,68.7,29.96,ENE,68,0.0,-999.0,82,0.00,,,0.18,Wunderground v.1.15,2013-07-17 23:00:00,
2013-07-17 19:05:00,74.6,69.1,29.96,N/A,-737280,0.0,-999.0,83,0.00,,,0.18,Wunderground v.1.15,2013-07-17 23:05:00,
2013-07-17 19:10:00,74.6,69.1,29.96,N/A,-737280,0.0,-999.0,83,0.00,,,0.18,Wunderground v.1.15,2013-07-17 23:10:00,
2013-07-17 19:15:00,74.6,69.1,29.96,N/A,-737280,0.0,-999.0,83,0.00,,,0.18,Wunderground v.1.15,2013-07-17 23:15:00,
2013-07-17 19:20:00,74.6,69.1,29.96,N/A,-737280,0.0,-999.0,83,0.00,,,0.18,Wunderground v.1.15,2013-07-17 23:20:00,
2013-07-17 19:25:00,74.6,69.1,29.96,N/A,-737280,0.0,-999.0,83,0.00,,,0.18,Wunderground v.1.15,2013-07-17 23:25:00,
2013-07-17 19:30:00,74.6,69.1,29.97,East,90,0.0,-999.0,83,0.00,,,0.18,Wunderground v.1.15,2013-07-17 23:30:00,
2013-07-17 19:35:00,74.6,69.1,29.97,N/A,-737280,0.0,-999.0,83,0.00,,,0.18,Wunderground v.1.15,2013-07-17 23:35:00,
2013-07-17 19:40:00,74.6,69.1,29.97,N/A,-737280,0.0,-999.0,83,0.00,,,0.18,Wunderground v.1.15,2013-07-17 23:40:00,
2013-07-17 19:45:00,74.6,69.4,29.98,N/A,-737280,0.0,-999.0,84,0.00,,,0.18,Wunderground v.1.15,2013-07-17 23:45:00,
2013-07-17 19:50:00,74.6,69.4,29.98,N/A,-737280,0.0,-999.0,84,0.00,,,0.18,Wunderground v.1.15,2013-07-17 23:50:00,
2013-07-17 19:55:00,74.6,69.4,29.98,N/A,-737280,0.0,-999.0,84,0.00,,,0.18,Wunderground v.1.15,2013-07-17 23:55:00,
2013-07-17 20:00:00,74.6,69.4,29.98,N/A,-737280,0.0,-999.0,84,0.00,,,0.18,Wunderground v.1.15,2013-07-18 00:00:00,
2013-07-17 20:05:00,74.6,69.4,29.98,N/A,-737280,0.0,-999.0,84,0.00,,,0.18,Wunderground v.1.15,2013-07-18 00:05:00,
2013-07-17 20:10:00,74.6,69.4,29.98,N/A,-737280,0.0,-999.0,84,0.00,,,0.18,Wunderground v.1.15,2013-07-18 00:10:00,
2013-07-17 20:15:00,74.6,69.4,29.99,N/A,-737280,0.0,-999.0,84,0.00,,,0.18,Wunderground v.1.15,2013-07-18 00:15:00,
2013-07-17 20:20:00,74.6,69.4,29.99,N/A,-737280,0.0,-999.0,84,0.00,,,0.18,Wunderground v.1.15,2013-07-18 00:20:00,
2013-07-17 20:25:00,74.6,69.4,29.99,N/A,-737280,0.0,-999.0,84,0.00,,,0.18,Wunderground v.1.15,2013-07-18 00:25:00,
2013-07-17 20:30:00,74.6,69.4,29.99,N/A,-737280,0.0,-999.0,84,0.00,,,0.18,Wunderground v.1.15,2013-07-18 00:30:00,
2013-07-17 20:35:00,74.6,69.4,29.99,N/A,-737280,0.0,-999.0,84,0.00,,,0.18,Wunderground v.1.15,2013-07-18 00:35:00,
2013-07-17 20:40:00,74.6,69.4,29.99,N/A,-737280,0.0,-999.0,84,0.00,,,0.18,Wunderground v.1.15,2013-07-18 00:40:00,
2013-07-17 20:45:00,74.6,69.4,29.99,N/A,-737280,0.0,-999.0,84,0.00,,,0.18,Wunderground v.1.15,2013-07-18 00:45:00,
2013-07-17 20:50:00,74.6,69.4,29.99,N/A,-737280,0.0,-999.0,84,0.00,,,0.18,Wunderground v.1.15,2013-07-18 00:50:00,
2013-07-17 20:55:00,74.6,69.4,29.99,N/A,-737280,0.0,-999.0,84,0.00,,,0.18,Wunderground v.1.15,2013-07-18 00:55:00,
2013-07-17 21:00:00,74.6,69.4,29.99,N/A,-737280,0.0,-999.0,84,0.00,,,0.18,Wunderground v.1.15,2013-07-18 01:00:00,
2013-07-17 21:05:00,74.6,69.4,29.99,N/A,-737280,0.0,-999.0,84,0.00,,,0.18,Wunderground v.1.15,2013-07-18 01:05:00,
2013-07-17 21:10:00,74.6,69.8,29.99,N/A,-737280,0.0,-999.0,85,0.00,,,0.18,Wunderground v.1.15,2013-07-18 01:10:00,
2013-07-17 21:15:00,74.6,69.8,29.99,East,90,0.0,-999.0,85,0.00,,,0.18,Wunderground v.1.15,2013-07-18 01:15:00,
2013-07-17 21:20:00,74.6,69.8,29.99,N/A,-737280,0.0,-999.0,85,0.00,,,0.18,Wunderground v.1.15,2013-07-18 01:20:00,
2013-07-17 21:25:00,74.6,69.8,29.99,N/A,-737280,0.0,-999.0,85,0.00,,,0.18,Wunderground v.1.15,2013-07-18 01:25:00,
2013-07-17 21:30:00,74.7,69.9,30.00,N/A,-737280,0.0,-999.0,85,0.00,,,0.18,Wunderground v.1.15,2013-07-18 01:30:00,
2013-07-17 21:35:00,74.7,69.9,30.00,N/A,-737280,0.0,-999.0,85,0.00,,,0.18,Wunderground v.1.15,2013-07-18 01:35:00,
2013-07-17 21:40:00,74.7,69.9,30.00,N/A,-737280,0.0,-999.0,85,0.00,,,0.18,Wunderground v.1.15,2013-07-18 01:40:00,
2013-07-17 21:45:00,74.7,69.9,30.00,N/A,-737280,0.0,-999.0,85,0.00,,,0.18,Wunderground v.1.15,2013-07-18 01:45:00,
2013-07-17 21:50:00,74.7,69.9,30.00,N/A,-737280,0.0,-999.0,85,0.00,,,0.18,Wunderground v.1.15,2013-07-18 01:50:00,
2013-07-17 21:55:00,74.7,69.9,30.00,N/A,-737280,0.0,-999.0,85,0.00,,,0.18,Wunderground v.1.15,2013-07-18 01:55:00,
2013-07-17 22:00:00,74.7,69.9,30.00,N/A,-737280,0.0,-999.0,85,0.00,,,0.18,Wunderground v.1.15,2013-07-18 02:00:00,
2013-07-17 22:05:00,74.7,69.9,30.00,N/A,-737280,0.0,-999.0,85,0.00,,,0.18,Wunderground v.1.15,2013-07-18 02:05:00,
2013-07-17 22:10:00,74.7,69.9,30.00,N/A,-737280,0.0,-999.0,85,0.00,,,0.18,Wunderground v.1.15,2013-07-18 02:10:00,
2013-07-17 22:15:00,74.7,70.2,30.00,N/A,-737280,0.0,-999.0,86,0.00,,,0.18,Wunderground v.1.15,2013-07-18 02:15:00,
2013-07-17 22:20:00,74.7,70.2,30.00,N/A,-737280,0.0,-999.0,86,0.00,,,0.18,Wunderground v.1.15,2013-07-18 02:20:00,
2013-07-17 22:25:00,74.7,70.2,30.00,N/A,-737280,0.0,-999.0,86,0.00,,,0.18,Wunderground v.1.15,2013-07-18 02:25:00,
2013-07-17 22:30:00,74.9,70.4,30.00,N/A,-737280,0.0,-999.0,86,0.00,,,0.18,Wunderground v.1.15,2013-07-18 02:30:00,
2013-07-17 22:35:00,74.7,70.2,30.00,N/A,-737280,0.0,-999.0,86,0.00,,,0.18,Wunderground v.1.15,2013-07-18 02:35:00,
2013-07-17 22:40:00,74.7,70.2,30.00,N/A,-737280,0.0,-999.0,86,0.00,,,0.18,Wunderground v.1.15,2013-07-18 02:40:00,
2013-07-17 22:45:00,74.7,70.2,30.00,N/A,-737280,0.0,-999.0,86,0.00,,,0.18,Wunderground v.1.15,2013-07-18 02:45:00,
2013-07-17 22:50:00,74.7,70.2,30.00,N/A,-737280,0.0,-999.0,86,0.00,,,0.18,Wunderground v.1.15,2013-07-18 02:50:00,
2013-07-17 22:55:00,74.7,70.2,30.00,N/A,-737280,0.0,-999.0,86,0.00,,,0.18,Wunderground v.1.15,2013-07-18 02:55:00,
2013-07-17 23:00:00,74.7,70.2,30.00,N/A,-737280,0.0,-999.0,86,0.00,,,0.18,Wunderground v.1.15,2013-07-18 03:00:00,
2013-07-17 23:05:00,74.7,70.2,30.00,N/A,-737280,0.0,-999.0,86,0.00,,,0.18,Wunderground v.1.15,2013-07-18 03:05:00,
2013-07-17 23:10:00,74.7,70.2,30.00,N/A,-737280,0.0,-999.0,86,0.00,,,0.18,Wunderground v.1.15,2013-07-18 03:10:00,
2013-07-17 23:15:00,74.6,70.1,30.01,N/A,-737280,0.0,-999.0,86,0.00,,,0.18,Wunderground v.1.15,2013-07-18 03:15:00,
2013-07-17 23:20:00,74.6,70.5,30.01,N/A,-737280,0.0,-999.0,87,0.00,,,0.18,Wunderground v.1.15,2013-07-18 03:20:00,
2013-07-17 23:25:00,74.7,70.6,30.01,N/A,-737280,0.0,-999.0,87,0.00,,,0.18,Wunderground v.1.15,2013-07-18 03:25:00,
2013-07-17 23:30:00,74.7,70.6,30.01,N/A,-737280,0.0,-999.0,87,0.00,,,0.18,Wunderground v.1.15,2013-07-18 03:30:00,
2013-07-17 23:35:00,74.7,70.6,30.01,N/A,-737280,0.0,-999.0,87,0.00,,,0.18,Wunderground v.1.15,2013-07-18 03:35:00,
2013-07-17 23:40:00,74.7,70.6,30.01,East,90,0.0,-999.0,87,0.00,,,0.18,Wunderground v.1.15,2013-07-18 03:40:00,
2013-07-17 23:45:00,74.7,70.6,30.01,East,89,0.0,0.0,87,0.00,,,0.18,Wunderground v.1.15,2013-07-18 03:45:00,